When you browse on this site, cookies collect data to enhance your experience and personalize the content and advertising you see.
Visit our Privacy Policy to learn more. By continuing to use the site, you agree to this use of cookies and data.

Hourly Weather Rodovoe

Today, 5 August, Wednesday

Time Temperature Precipitation Wind Pressure Humidity
00:00 +19°C° 1.3 mm 3 mps 749 mmHg 97%
01:00 +18°C° 1.3 mm 3 mps 749 mmHg 97%
02:00 +18°C° 1.3 mm 3 mps 749 mmHg 97%
03:00 +18°C° 0.1 mm 3 mps 750 mmHg 97%
04:00 +17°C° 0.1 mm 3 mps 750 mmHg 97%
05:00 +17°C° 0.1 mm 3 mps 750 mmHg 97%
06:00 +17°C° 0 mm 3 mps 751 mmHg 94%
07:00 +17°C° 0 mm 2 mps 752 mmHg 92%
08:00 +18°C° 0 mm 2 mps 752 mmHg 90%
09:00 +19°C° 0 mm 2 mps 753 mmHg 80%
10:00 +21°C° 0 mm 2 mps 753 mmHg 69%
11:00 +23°C° 0 mm 2 mps 754 mmHg 58%
12:00 +24°C° 0 mm 2 mps 754 mmHg 55%
13:00 +24°C° 0 mm 2 mps 754 mmHg 52%
14:00 +25°C° 0 mm 2 mps 755 mmHg 49%
15:00 +25°C° 0 mm 2 mps 755 mmHg 51%
16:00 +24°C° 0 mm 2 mps 755 mmHg 52%
17:00 +24°C° 0 mm 2 mps 755 mmHg 54%
18:00 +21°C° 0 mm 2 mps 755 mmHg 60%
19:00 +19°C° 0 mm 2 mps 756 mmHg 66%
20:00 +18°C° 0 mm 2 mps 756 mmHg 72%
21:00 +17°C° 0 mm 2 mps 756 mmHg 72%
22:00 +16°C° 0 mm 1 mps 757 mmHg 72%
23:00 +15°C° 0 mm 1 mps 757 mmHg 72%

Tomorrow, 6 August, Thursday

Time Temperature Precipitation Wind Pressure Humidity
00:00 +14°C° 0 mm 1 mps 758 mmHg 74%
01:00 +13°C° 0 mm 1 mps 758 mmHg 77%
02:00 +13°C° 0 mm 1 mps 758 mmHg 79%
03:00 +13°C° 0 mm 1 mps 758 mmHg 83%
04:00 +12°C° 0 mm 1 mps 759 mmHg 86%
05:00 +12°C° 0 mm 1 mps 759 mmHg 89%
06:00 +14°C° 0 mm 2 mps 759 mmHg 82%
07:00 +16°C° 0 mm 2 mps 759 mmHg 75%
08:00 +18°C° 0 mm 2 mps 760 mmHg 68%
09:00 +19°C° 0 mm 2 mps 760 mmHg 64%
10:00 +20°C° 0 mm 2 mps 760 mmHg 60%
11:00 +21°C° 0 mm 2 mps 760 mmHg 56%
12:00 +21°C° 0 mm 3 mps 760 mmHg 57%
13:00 +21°C° 0 mm 3 mps 760 mmHg 58%
14:00 +22°C° 0 mm 3 mps 760 mmHg 59%
15:00 +23°C° 0 mm 2 mps 760 mmHg 61%
16:00 +23°C° 0 mm 2 mps 760 mmHg 63%
17:00 +23°C° 0 mm 1 mps 760 mmHg 65%
18:00 +21°C° 0 mm 1 mps 760 mmHg 72%
19:00 +20°C° 0 mm 1 mps 760 mmHg 78%
20:00 +17°C° 0 mm 0 mps 761 mmHg 84%
21:00 +18°C° 0 mm 1 mps 761 mmHg 87%
22:00 +18°C° 0 mm 1 mps 761 mmHg 89%
23:00 +16°C° 0 mm 1 mps 761 mmHg 92%

Day after tomorrow, 7 August, Friday

Time Temperature Precipitation Wind Pressure Humidity
00:00 +16°C° 0 mm 1 mps 761 mmHg 93%
01:00 +16°C° 0 mm 1 mps 762 mmHg 95%
02:00 +15°C° 0 mm 1 mps 762 mmHg 96%
03:00 +15°C° 0 mm 1 mps 762 mmHg 96%
04:00 +15°C° 0 mm 1 mps 762 mmHg 96%
05:00 +15°C° 0 mm 1 mps 762 mmHg 97%
06:00 +16°C° 0 mm 1 mps 762 mmHg 92%
07:00 +19°C° 0 mm 1 mps 762 mmHg 87%
08:00 +20°C° 0 mm 1 mps 762 mmHg 82%
09:00 +21°C° 0 mm 1 mps 762 mmHg 78%
10:00 +22°C° 0 mm 1 mps 762 mmHg 74%
11:00 +24°C° 0 mm 1 mps 762 mmHg 71%
12:00 +24°C° 0.5 mm 1 mps 762 mmHg 73%
13:00 +24°C° 0.5 mm 2 mps 762 mmHg 75%
14:00 +24°C° 0.5 mm 2 mps 762 mmHg 77%
15:00 +24°C° 0.7 mm 2 mps 762 mmHg 78%
16:00 +24°C° 0.7 mm 2 mps 762 mmHg 79%
17:00 +24°C° 0.7 mm 1 mps 761 mmHg 80%
18:00 +22°C° 0.2 mm 1 mps 761 mmHg 83%
19:00 +21°C° 0.2 mm 1 mps 761 mmHg 86%
20:00 +20°C° 0.2 mm 1 mps 761 mmHg 90%
21:00 +19°C° 0 mm 1 mps 761 mmHg 90%
22:00 +18°C° 0 mm 1 mps 761 mmHg 90%
23:00 +18°C° 0 mm 1 mps 761 mmHg 90%

8 August, Saturday

Time Temperature Precipitation Wind Pressure Humidity
00:00 +18°C° 0 mm 1 mps 761 mmHg 90%
01:00 +16°C° 0 mm 1 mps 761 mmHg 90%
02:00 +16°C° 0 mm 1 mps 761 mmHg 90%
03:00 +16°C° 0 mm 1 mps 761 mmHg 90%
04:00 +16°C° 0 mm 1 mps 761 mmHg 91%
05:00 +16°C° 0 mm 1 mps 761 mmHg 92%
06:00 +19°C° 0 mm 1 mps 761 mmHg 89%
07:00 +20°C° 0 mm 1 mps 761 mmHg 86%
08:00 +21°C° 0 mm 1 mps 761 mmHg 83%
09:00 +22°C° 0.2 mm 1 mps 761 mmHg 78%
10:00 +24°C° 0.2 mm 1 mps 761 mmHg 74%
11:00 +25°C° 0.2 mm 1 mps 760 mmHg 69%
12:00 +25°C° 0.3 mm 1 mps 760 mmHg 68%
13:00 +26°C° 0.3 mm 1 mps 760 mmHg 66%
14:00 +26°C° 0.3 mm 1 mps 759 mmHg 65%
15:00 +26°C° 0.1 mm 1 mps 759 mmHg 65%
16:00 +26°C° 0.1 mm 1 mps 758 mmHg 65%
17:00 +26°C° 0.1 mm 1 mps 758 mmHg 65%
18:00 +24°C° 0 mm 1 mps 758 mmHg 72%
19:00 +22°C° 0 mm 1 mps 758 mmHg 79%
20:00 +20°C° 0 mm 1 mps 758 mmHg 85%
21:00 +20°C° 0 mm 1 mps 758 mmHg 87%
22:00 +19°C° 0 mm 1 mps 758 mmHg 88%
23:00 +18°C° 0 mm 1 mps 758 mmHg 90%

9 August, Sunday

Time Temperature Precipitation Wind Pressure Humidity
00:00 +18°C° 0 mm 1 mps 757 mmHg 91%
01:00 +18°C° 0 mm 1 mps 757 mmHg 93%
02:00 +16°C° 0 mm 1 mps 757 mmHg 94%
03:00 +16°C° 0 mm 1 mps 757 mmHg 95%
04:00 +16°C° 0 mm 1 mps 757 mmHg 96%
05:00 +16°C° 0 mm 1 mps 757 mmHg 97%
06:00 +18°C° 0 mm 1 mps 756 mmHg 92%
07:00 +20°C° 0 mm 1 mps 756 mmHg 87%
08:00 +21°C° 0 mm 1 mps 756 mmHg 82%
09:00 +23°C° 0.1 mm 2 mps 756 mmHg 75%
10:00 +24°C° 0.1 mm 2 mps 756 mmHg 67%
11:00 +25°C° 0.1 mm 2 mps 756 mmHg 60%
12:00 +26°C° 0 mm 2 mps 755 mmHg 58%
13:00 +26°C° 0 mm 2 mps 755 mmHg 55%
14:00 +26°C° 0 mm 2 mps 755 mmHg 53%
15:00 +26°C° 0 mm 2 mps 754 mmHg 56%
16:00 +26°C° 0 mm 2 mps 754 mmHg 58%
17:00 +25°C° 0 mm 3 mps 754 mmHg 60%
18:00 +24°C° 0 mm 2 mps 754 mmHg 68%
19:00 +21°C° 0 mm 2 mps 754 mmHg 76%
20:00 +19°C° 0 mm 2 mps 754 mmHg 85%
21:00 +18°C° 0 mm 2 mps 754 mmHg 86%
22:00 +18°C° 0 mm 2 mps 754 mmHg 88%
23:00 +18°C° 0 mm 1 mps 754 mmHg 90%

10 August, Monday

Time Temperature Precipitation Wind Pressure Humidity
00:00 +18°C° 0 mm 1 mps 754 mmHg 92%
01:00 +16°C° 0 mm 1 mps 754 mmHg 93%
02:00 +16°C° 0 mm 1 mps 754 mmHg 95%
03:00 +16°C° 0 mm 1 mps 754 mmHg 95%
04:00 +15°C° 0 mm 1 mps 754 mmHg 96%
05:00 +15°C° 0 mm 2 mps 754 mmHg 96%
06:00 +17°C° 0 mm 2 mps 754 mmHg 88%
07:00 +19°C° 0 mm 2 mps 754 mmHg 81%
08:00 +20°C° 0 mm 2 mps 754 mmHg 73%
09:00 +23°C° 0.1 mm 2 mps 754 mmHg 68%
10:00 +24°C° 0.1 mm 2 mps 754 mmHg 63%
11:00 +26°C° 0.1 mm 1 mps 754 mmHg 58%
12:00 +25°C° 1.2 mm 2 mps 753 mmHg 64%
13:00 +25°C° 1.2 mm 2 mps 753 mmHg 70%
14:00 +25°C° 1.2 mm 3 mps 753 mmHg 76%
15:00 +25°C° 0.7 mm 3 mps 753 mmHg 76%
16:00 +25°C° 0.7 mm 3 mps 753 mmHg 76%
17:00 +25°C° 0.7 mm 3 mps 753 mmHg 77%
18:00 +22°C° 0.1 mm 3 mps 753 mmHg 81%
19:00 +21°C° 0.1 mm 2 mps 753 mmHg 86%
20:00 +19°C° 0.1 mm 2 mps 753 mmHg 90%
21:00 +19°C° 0 mm 2 mps 753 mmHg 92%
22:00 +18°C° 0 mm 2 mps 753 mmHg 94%
23:00 +17°C° 0 mm 2 mps 753 mmHg 96%
Show more